Hors Challenge

La Courses Nature du FC Bercheux - Bercheux (6.00 km)

dimanche 12 janvier 2020

 
COURSES NATURE FC BERCHEUX - BERCHEUX
DISTANCE : 5.96 km
dimanche 12 janvier 2020
 
Place dos NOM Catégorie Pl/cat temps temps/km Vitesse
01:00:00              
1 426 MARON NICOLAS HOMME 1 00:24:00 04:02 14.90
2 440 PIERRARD CHRISTOPHE HOMME 2 00:27:20 04:35 13.08
3 433 WAHA ANTHONY HOMME 3 00:27:29 04:37 13.01
4 494 PICARD AMAEL HOMME 4 00:28:53 04:51 12.38
5 437 PIERRET ANTOINE HOMME 5 00:30:03 05:03 11.90
6 460 RAUSCH PIERRE HOMME 6 00:30:06 05:03 11.88
7 205 STORDEUR MATEO HOMME 7 00:30:25 05:06 11.76
8 348 CLEMENT JIMMY HOMME 8 00:30:43 05:09 11.64
9 384 BELCHE JEREMY HOMME 9 00:30:52 05:11 11.59
10 436 LASSENCE MARVIN HOMME 10 00:31:35 05:18 11.32
11 439 HUBERTY JORDAN HOMME 11 00:31:39 05:19 11.30
12 447 DE SMET FRANCOIS HOMME 12 00:31:54 05:21 11.21
13 450 TINANT CHLOE DAME 1 00:32:04 05:23 11.15
14 407 GREGOIRE NICOLAS HOMME 13 00:32:30 05:27 11.00
15 492 DELACOLETTE QUENTIN HOMME 14 00:32:37 05:28 10.96
16 422 LIBERT EMILIE DAME 2 00:32:56 05:32 10.86
17 431 KIRSCLT BENJAMIN HOMME 15 00:32:58 05:32 10.85
18 432 DESSE SEBASTIEN HOMME 16 00:33:00 05:32 10.84
19 401 LAMBERT CÉDRIC HOMME 17 00:33:13 05:34 10.77
20 429 SCHREIBER TONY HOMME 18 00:33:20 05:36 10.73
21 420 LERICHE ANTONIN HOMME 19 00:33:38 05:39 10.63
22 350 MUTOMBO GRADI HOMME 20 00:35:15 05:55 10.14
23 435 GIRS CORALINE DAME 3 00:36:29 06:07 9.80
24 275 BOEUR MELANIE DAME 4 00:36:37 06:09 9.77
25 457 PIROTTE NOAN HOMME 21 00:37:13 06:15 9.61
26 442 GILLET ANTONIN HOMME 22 00:37:16 06:15 9.60
27 425 FENA VICTORIA DAME 5 00:38:37 06:29 9.26
28 455 MARTIN GAUTHIER HOMME 23 00:38:40 06:29 9.25
29 459 PIROTTE FRANCOIS HOMME 24 00:39:05 06:33 9.15
30 480 WEYRICH PAULINE DAME 6 00:40:35 06:49 8.81
31 413 PETITJEAN ARNAUD HOMME 25 00:41:30 06:58 8.62
32 416 SCHRANZ PASCALE DAME 7 00:41:44 07:00 8.57
33 400 STOCK NATHALIE DAME 8 00:42:11 07:05 8.48
34 415 CASTADOT LEOPOLD HOMME 26 00:42:14 07:05 8.47
35 434 DE VOS JEROME HOMME 27 00:42:41 07:10 8.38
36 414 CASTADOT VICTOIRE DAME 9 00:42:59 07:13 8.32
37 479 LAMBIN ANNE-CHRISTINE DAME 10 00:43:40 07:20 8.19
38 465 VREBOS DIANE DAME 11 00:43:45 07:20 8.17
39 464 COLOT SANDRINE DAME 12 00:43:55 07:22 8.14
40 481 DE GREEF KARIN HOMME 28 00:44:00 07:23 8.13
41 430 KIRSCH VICTORINE DAME 13 00:44:17 07:26 8.08
42 428 VESTRAETE LAURANE DAME 14 00:44:22 07:27 8.06
43 427 BODELET MARYSE DAME 15 00:45:13 07:35 7.91
44 454 MORISOD ROMANE DAME 16 00:45:49 07:41 7.81
45 412 LICHTFUS MARIS DAME 17 00:46:07 07:44 7.75
46 409 RENVEZ MIREILLE DAME 18 00:46:10 07:45 7.75
47 453 DURRE RACHEL DAME 19 00:46:40 07:50 7.66
48 446 GOFFETTE HELOISE DAME 20 00:46:43 07:50 7.65
49 448 LAMOTTE CHRISTELLE DAME 21 00:46:47 07:51 7.64
50 449 COURTOIS ANNE HOMME 29 00:46:50 07:51 7.64
51 444 BREVER SYLVIE DAME 22 00:47:14 07:56 7.57
52 441 URBAIN ANNE-LISE DAME 23 00:47:15 07:56 7.57
53 451 PONCIN EMMA DAME 24 00:47:19 07:56 7.56
54 452 MAQUET ADELE DAME 25 00:47:29 07:58 7.53
55 421 GILSON MARISSA DAME 26 00:48:00 08:03 7.45
56 419 LESENFANTS CAMILLE DAME 27 00:49:08 08:15 7.28
57 418 LESENFANTS MELINE DAME 28 00:49:18 08:16 7.25
58 417 GIRS ANGELIQUE DAME 29 00:49:19 08:16 7.25
59 408 CHARNEUX YSALINE DAME 30 00:49:43 08:21 7.19
60 477 DETAILLE SOPHIE DAME 31 00:50:22 08:27 7.10
61 478 BACLIN NATHALIE DAME 32 00:50:26 08:28 7.09
62 462 MIGNON FELIX HOMME 30 00:50:29 08:28 7.08
63 463 CONDROTTE ANTOINE HOMME 31 00:50:31 08:29 7.08
64 456 PIROTTE IZEA DAME 33 00:50:45 08:31 7.05
65 458 COYETTE STEPHANE HOMME 32 00:51:05 08:34 7.00
66 443 CLEMENT ANTOINE HOMME 33 00:52:50 08:52 6.77
67 411 MATHIEU AMANDINE DAME 34 00:53:17 08:56 6.71
68 423 LEONET ISABELLE DAME 35 00:53:23 08:57 6.70
69 424 MAHIN MELANIE DAME 36 00:54:29 09:08 6.56
70 410 EISHEN JEAN HOMME 34 00:55:07 09:15 6.49
71 196 HUSIAUX CORENTIN HOMME 35 00:55:50 09:22 6.40
72 445 CLEMENT SIMON HOMME 36 00:59:42 10:01 5.99
73 353 DENUYNEL NATHAN HOMME 37 01:11:26 11:59 5.01
74 493 LONGUEVILLE GAELLE DAME 37 01:17:06 12:56 4.64
75 406 COYETTE LAURA DAME 38 01:17:14 12:58 4.63
76 495 GARCIA EMELINE DAME 39 01:18:21 13:09 4.56